Address 0x081ca6de70660181a40e096fcecef2781cd7cb8e 12

Overview

Balance:
10.118327575496325811 GLMR

GLMR Value:
$4.60 (@ $0.45/GLMR)
Txn Hash Method
Block
From
To
Value [Txn Fee]
0xb2a313da0674c34494542101f2e93b69aa61435ca9213c8dd059e386f91a73d3Transfer17069502022-08-22 15:01:1238 days 16 hrs ago0x081ca6de70660181a40e096fcecef2781cd7cb8eOUT0x06f221a2e6c9ed2a81ccc64cb96a9e4d26d6e7d7233 GLMR0.0021315
0xc9142f8f87c5646d70eddc09965416507bc45a1551073e9008c468e0adaa85e9Swap Exact Token...17069392022-08-22 14:59:0038 days 16 hrs ago0x081ca6de70660181a40e096fcecef2781cd7cb8eOUT StellaSwap: Router v2.10 GLMR0.011447779
0xd157e7e64e867302280bfb038b6980ebe78aca6db5068245653e59fb238869b1Swap Exact Token...16578422022-08-15 13:43:1245 days 17 hrs ago0x081ca6de70660181a40e096fcecef2781cd7cb8eOUT StellaSwap: Router v2.10 GLMR0.0206752735
0xa91bef2d9932a7ff98fb92fc96372176a3be83fbb6a5ba991775b8a2300a9134Swap Exact Token...16578282022-08-15 13:40:1245 days 17 hrs ago0x081ca6de70660181a40e096fcecef2781cd7cb8eOUT StellaSwap: Router v2.10 GLMR0.008552445629
0x08d2bc2f8d2676010a57ec9b477844855eb378dcd7a1ca2b7f2a81ba17837b7eTransfer16578002022-08-15 13:34:3045 days 17 hrs ago0x081ca6de70660181a40e096fcecef2781cd7cb8eOUT0x06f221a2e6c9ed2a81ccc64cb96a9e4d26d6e7d7400 GLMR0.0021315
0x69b0350b9b7a3581ff7c06b03ad60f53c7ff8d6128807a988b5465f55c8384fcSwap Exact Token...16577982022-08-15 13:34:0045 days 17 hrs ago0x081ca6de70660181a40e096fcecef2781cd7cb8eOUT StellaSwap: Router v2.10 GLMR0.0085480255
0xb7de1dcf8dace8c4fe40e4d5a17c72962f9ec6c53613cd0043c334c35f34402aSwap Tokens For ...16577952022-08-15 13:33:2445 days 17 hrs ago0x081ca6de70660181a40e096fcecef2781cd7cb8eOUT StellaSwap: Router v2.10 GLMR0.011446358
0x5e2a40331af5a50bbd0db4da864f7bb9d81f26d0abf233bb9725443d4c67aa9fSwap Exact Token...16577562022-08-15 13:25:1245 days 18 hrs ago0x081ca6de70660181a40e096fcecef2781cd7cb8eOUT StellaSwap: Router v2.10 GLMR0.0085480255
0x2cb7cd522fe3a73bf66e0f617be3790176232e4614e6ad454ef34288678e82eaSwap Exact Token...16577522022-08-15 13:24:2445 days 18 hrs ago0x081ca6de70660181a40e096fcecef2781cd7cb8eOUT StellaSwap: Router v2.10 GLMR0.0085480255
0xa1cadd9c24c90520b8aa838143898d7f15c21e0e158a5d2edaaa2317e20f8f0cSwap Exact Token...16563912022-08-15 8:44:1845 days 22 hrs ago0x081ca6de70660181a40e096fcecef2781cd7cb8eOUT StellaSwap: Router v2.10 GLMR0.0085480255
0xbace0885c78fb25afb0bdd42bd19eebc2f3b96278fa33535a8e427ef0b4f4ec2Transfer16560682022-08-15 7:37:2445 days 23 hrs ago0x081ca6de70660181a40e096fcecef2781cd7cb8eOUT0x06f221a2e6c9ed2a81ccc64cb96a9e4d26d6e7d7300 GLMR0.0021315
0x5adcbb2bf88a2701edfc34842300a33e6445524b005e3ad73c5b792c26d3d40aSwap Tokens For ...16560602022-08-15 7:35:3645 days 23 hrs ago0x081ca6de70660181a40e096fcecef2781cd7cb8eOUT StellaSwap: Router v2.10 GLMR0.011446358
0xdce8df6fda467103a919700b39f669f53b054e7c78cf1ee8a9e1ae5179a9385aSwap Exact Token...16560322022-08-15 7:29:3045 days 23 hrs ago0x081ca6de70660181a40e096fcecef2781cd7cb8eOUT StellaSwap: Router v2.10 GLMR0.0085480255
0xd6f9c9d425cf53522e8d055eb30752bbe00d9946ebcecc60570630ecb02165f1Swap Exact Token...16559942022-08-15 7:21:3646 days 6 mins ago0x081ca6de70660181a40e096fcecef2781cd7cb8eOUT StellaSwap: Router v2.10 GLMR0.013817398
0x397911270818fc6ef70647449b7a804458b0bff1b47549a76888b433f2f1bf20Swap Exact Token...16558872022-08-15 6:59:2446 days 28 mins ago0x081ca6de70660181a40e096fcecef2781cd7cb8eOUT StellaSwap: Router v2.10 GLMR0.0085480255
0xcfdf32504ac50db30465613fe2acae481c4859102c457ba4f738f65f1bf9dc0fSwap Exact Token...16558772022-08-15 6:57:2446 days 30 mins ago0x081ca6de70660181a40e096fcecef2781cd7cb8eOUT StellaSwap: Router v2.10 GLMR0.0085480255
0xf9fc91905c0443a6d3c3d9f8c48eaa0343fe8e07458a2ea9be63e4d655fbce7fSwap Exact Token...16558202022-08-15 6:45:4246 days 42 mins ago0x081ca6de70660181a40e096fcecef2781cd7cb8eOUT StellaSwap: Router v2.10 GLMR0.0085480255
0x58af83019e013a605a2a6d94aad77f54c4c9c7ed38ca3de9e5d635ebcfb81558Swap Exact Token...16555832022-08-15 5:57:3046 days 1 hr ago0x081ca6de70660181a40e096fcecef2781cd7cb8eOUT StellaSwap: Router v2.10 GLMR0.0085480255
0xecbfcaf758f0027e2cd15f29c30ae0a0667cdbf539d07e0d2af89d4bf82e620cSwap Exact Token...16555802022-08-15 5:56:5446 days 1 hr ago0x081ca6de70660181a40e096fcecef2781cd7cb8eOUT StellaSwap: Router v2.10 GLMR0.0085480255
0x90754b5bf7c2e75e1744fe183c5e4960592235b45c78569a6cf16a32dd57e695Swap Exact Token...16555772022-08-15 5:56:1846 days 1 hr ago0x081ca6de70660181a40e096fcecef2781cd7cb8eOUT StellaSwap: Router v2.10 GLMR0.0085480255
0x26a99bba9207cddbc6eae4d8274943a704a30ccba00543845907b2bcbff9cfc9Swap Exact Token...16555732022-08-15 5:55:3046 days 1 hr ago0x081ca6de70660181a40e096fcecef2781cd7cb8eOUT StellaSwap: Router v2.10 GLMR0.0085480255
0xf4438657bcf3b5657a30dc6b9eab9212b1d21653a968dc87c15f0ae1bab2c5e4Swap Exact Token...16555692022-08-15 5:54:4246 days 1 hr ago0x081ca6de70660181a40e096fcecef2781cd7cb8eOUT StellaSwap: Router v2.10 GLMR0.0085480255
0x89b75089211f13b8c926e986ed5e0f529fcdd89b5d7dbb32992dd32b293ee456Swap Exact Token...16555462022-08-15 5:50:0046 days 1 hr ago0x081ca6de70660181a40e096fcecef2781cd7cb8eOUT StellaSwap: Router v2.10 GLMR0.0085480255
0x3bf7ace48fa11f7c501558c870c773ecdeeefbf12c0c9c03392f94cf68f254c2Swap Exact Token...16555402022-08-15 5:48:4846 days 1 hr ago0x081ca6de70660181a40e096fcecef2781cd7cb8eOUT StellaSwap: Router v2.10 GLMR0.0085480255
0x13af483383ba884df309166c3eab18725ddbc44424edb42ca4807bb9d4e63c98Swap Exact Token...16555362022-08-15 5:48:0046 days 1 hr ago0x081ca6de70660181a40e096fcecef2781cd7cb8eOUT StellaSwap: Router v2.10 GLMR0.0243771535
[ Download CSV Export 
Latest 9 internal transactions
Parent Txn Hash Block From To Value
0xc9142f8f87c5646d70eddc09965416507bc45a1551073e9008c468e0adaa85e917069392022-08-22 14:59:0038 days 16 hrs ago StellaSwap: Router v2.10x081ca6de70660181a40e096fcecef2781cd7cb8e234.156973522948244838 GLMR
0xb7de1dcf8dace8c4fe40e4d5a17c72962f9ec6c53613cd0043c334c35f34402a16577952022-08-15 13:33:2445 days 17 hrs ago StellaSwap: Router v2.10x081ca6de70660181a40e096fcecef2781cd7cb8e400 GLMR
0x5adcbb2bf88a2701edfc34842300a33e6445524b005e3ad73c5b792c26d3d40a16560602022-08-15 7:35:3645 days 23 hrs ago StellaSwap: Router v2.10x081ca6de70660181a40e096fcecef2781cd7cb8e300 GLMR
0x2afade487a5922be9b3fdcd64fe773b0c7f90d1980584c4b4ac707901920a35216489752022-08-14 6:52:2447 days 35 mins ago StellaSwap: Router v2.10x081ca6de70660181a40e096fcecef2781cd7cb8e10.84260216495486451 GLMR
0x3a57dae27805021bc25498597281697daa548a373a9eea09d5b1a50f1a0ddf0116483492022-08-14 4:43:4847 days 2 hrs ago StellaSwap: Router v2.10x081ca6de70660181a40e096fcecef2781cd7cb8e2.555499834975970784 GLMR
0x0576d88f99671f353de37b9458f541e0d6c79007ea338e1dec439f940b8ec13316238452022-08-10 16:00:4250 days 15 hrs ago StellaSwap: Router v2.10x081ca6de70660181a40e096fcecef2781cd7cb8e29.548983278693448538 GLMR
0x361684d1b3969ccb55e05bffdbca7e430ce8ee5ef4649174f3e82971d8a5ea1016025102022-08-07 14:26:4253 days 17 hrs ago StellaSwap: Router v2.10x081ca6de70660181a40e096fcecef2781cd7cb8e0.08547941354287901 GLMR
0x9360138962d600905f5721dbbd4af508e46c6260f0e7f7a3c2599248e15c27e016019812022-08-07 12:36:1253 days 18 hrs ago StellaSwap: Router v2.10x081ca6de70660181a40e096fcecef2781cd7cb8e3.999980394320320606 GLMR
0xbf94d523d224ae749eab4bebd59d5850916253e83dd3fc009d1703c6d345380015877042022-08-05 11:08:2455 days 20 hrs ago StellaSwap: Router v2.10x081ca6de70660181a40e096fcecef2781cd7cb8e3.973617719338175 GLMR
[ Download CSV Export 
Loading

Contract Name:
0

Compiler Version
0

Optimization Enabled:
0

Other Settings:
-NA-
Block Transaction Gas Used Reward
Age Block Fee Address BC Fee Address Voting Power Jailed Incoming
Block Uncle Number Difficulty Gas Used Reward
Loading
Make sure to use the "Vote Down" button for any spammy posts, and the "Vote Up" for interesting conversations.